{"data":{"norad_id":40081,"intl_designator":"2014-038C","name":"O3B FM6","alt_names":[],"object_type":"PAYLOAD","status":"ACTIVE","operator":null,"country":"O3B","launch_date":"2014-07-10","launch_site_code":"FRGUI","launch_vehicle":null,"mission":null,"orbit_class":"UNKNOWN","rcs_meters":12.5893,"size_class":null,"mass_kg":null,"dimensions":null,"purposes":["comms"],"wikipedia_slug":null,"has_3d_model":false,"image_url":null,"decayed_at":null,"tle_current":{"epoch":"2026-09-19T19:50:51.892800Z","epoch_age_seconds":72673,"freshness":"FRESH","line1":"1 40081U 14038C   26262.82698950 -.00000027  00000+0  00000+0 0  9992","line2":"2 40081   0.0458 353.0558 0002561 185.1188 181.8286  5.00115806222564","mean_motion":5.00115806,"eccentricity":0.0002561,"inclination_deg":0.0458,"raan_deg":353.0558,"arg_perigee_deg":185.1188,"mean_anomaly_deg":181.8286,"bstar":0,"rev_number":22256,"period_min":287.93331118993,"perigee_km":8062.1852126273,"apogee_km":8069.5834403507,"semimajor_km":14444.021326489,"source":"CELESTRAK","updated_at":"2026-09-20T09:00:35.682915Z"}}}